Anchorage, AK

5:53 PM AKST on February 10, 2016 (GMT -0900)
Merrill

Weather History for PAMR - November, 2012

Change the Weather History Date:

Monday, November 26, 2012

  Actual Average Record
Temperature  
Mean Temperature 8 °F -  
Max Temperature 15 °F 24 °F 55 °F (2002)
Min Temperature 0 °F 13 °F -11 °F (2006)
Degree Days  
Heating Degree Days 58    
Moisture  
Dew Point 1 °F    
Average Humidity 81    
Maximum Humidity 92    
Minimum Humidity 73    
Precipitation  
Precipitation 0.00 in - - ()
Sea Level Pressure  
Sea Level Pressure 30.26 in    
Wind  
Wind Speed 1 mph (East)    
Max Wind Speed 7 mph    
Max Gust Speed -    
Visibility 10 miles    
Events      
Averages and records for this station are not official NWS values.
T = Trace of Precipitation, MM = Missing Value Source: NWS Daily Summary

Daily Weather History Graph

Daily Weather History Graph

Search for Another Location

Airport or City:

Trip Planner

Search our weather history database for the weather conditions in past years. The results will help you decide how hot, cold, wet, or windy it might be!

Date:

Astronomy

Nov. 26, 2012 Rise Set
Actual Time 9:35 AM AKST 3:58 PM AKST
Civil Twilight 8:38 AM AKST 4:54 PM AKST
Nautical Twilight 7:42 AM AKST 5:51 PM AKST
Astronomical Twilight 6:50 AM AKST 6:43 PM AKST
Moon 3:12 PM AKST (11/26) 7:36 AM AKST (11/26)
Length of Visible Light 8h 15m
Length of Day
6h 22m
Waxing Gibbous, 97% of the Moon is Illuminated
Nov 26
Waxing Gibbous
Nov 28
Full
Dec 6
Last Quarter
Dec 12
New
Dec 19
First Quarter

Hourly Weather History & Observations

Time (AKST) Temp. Windchill Dew Point Humidity Pressure Visibility Wind Dir Wind Speed Gust Speed Precip Events Conditions
12:53 AM 1.9 °F - -2.9 °F 80% 30.25 in 9.0 mi Calm Calm - N/A   Clear
1:53 AM 1.9 °F - -2.0 °F 83% 30.26 in 10.0 mi Calm Calm - N/A   Clear
3:53 AM 1.9 °F -5.6 °F -4.0 °F 76% 30.27 in 10.0 mi East 3.5 mph - N/A   Clear
4:53 AM 1.9 °F -5.6 °F -2.9 °F 80% 30.27 in 10.0 mi East 3.5 mph - N/A   Clear
5:53 AM 3.0 °F - -2.9 °F 76% 30.27 in 10.0 mi Calm Calm - N/A   Clear
6:53 AM 3.9 °F - -2.9 °F 73% 30.28 in 10.0 mi Calm Calm - N/A   Clear
7:53 AM 1.9 °F -5.6 °F -2.0 °F 83% 30.29 in 10.0 mi East 3.5 mph - N/A   Clear
8:53 AM 3.9 °F - -0.0 °F 84% 30.30 in 10.0 mi Calm Calm - N/A   Clear
9:53 AM 3.0 °F - -2.0 °F 80% 30.30 in 8.0 mi Calm Calm - N/A   Clear
10:53 AM 6.1 °F - 1.0 °F 80% 30.31 in 10.0 mi Calm Calm - N/A   Clear
11:53 AM 6.1 °F -4.3 °F 1.9 °F 83% 30.31 in 10.0 mi East 5.8 mph - N/A   Clear
12:53 PM 12.9 °F - 7.0 °F 77% 30.30 in 10.0 mi Calm Calm - N/A   Clear
1:53 PM 12.9 °F - 7.0 °F 77% 30.30 in 10.0 mi Calm Calm - N/A   Clear
2:53 PM 14.0 °F - 8.1 °F 77% 30.29 in 10.0 mi Calm Calm - N/A   Clear
3:53 PM 15.1 °F - 10.0 °F 80% 30.28 in 10.0 mi Calm Calm - N/A   Clear
4:53 PM 9.0 °F - 6.1 °F 88% 30.27 in 10.0 mi Calm Calm - N/A   Clear
5:53 PM 8.1 °F - 3.9 °F 83% 30.27 in 10.0 mi Calm Calm - N/A   Clear
6:53 PM 8.1 °F - 3.0 °F 80% 30.27 in 10.0 mi Calm Calm - N/A   Clear
7:53 PM 5.0 °F - -0.0 °F 80% 30.25 in 10.0 mi Calm Calm - N/A   Clear
8:53 PM 3.0 °F -4.4 °F -2.9 °F 76% 30.25 in 10.0 mi ESE 3.5 mph - N/A   Clear
9:51 PM 3.2 °F - -2.2 °F 78% 30.21 in 10.0 mi Calm Calm - N/A   Partly Cloudy
9:53 PM 3.9 °F - -2.0 °F 76% 30.23 in 10.0 mi Calm Calm - N/A   Partly Cloudy
10:27 PM -0.4 °F - -2.2 °F 92% 30.21 in 10.0 mi Calm Calm - N/A   Mostly Cloudy
10:42 PM 1.4 °F - -2.2 °F 85% 30.21 in 9.0 mi Calm Calm - N/A   Scattered Clouds
10:53 PM 1.9 °F - -2.0 °F 83% 30.22 in 9.0 mi Calm Calm - N/A   Partly Cloudy
11:53 PM 5.0 °F -5.6 °F 1.0 °F 84% 30.21 in 10.0 mi NE 5.8 mph - N/A   Scattered Clouds
11:58 PM 5.0 °F -6.9 °F 1.4 °F 85% 30.19 in 1.8 mi NE 6.9 mph - N/A   Scattered Clouds